DW0333 Tranby-Lier NO current weather conditions

sailwx.info

Wind from 126 at 2 knots

Air temperature 0.6° C
Dewpoint 0.4° C

Last reported at 2015-Mar-02 02:43 UTC.
Time now 2015-Mar-02 03:39 UTC

Location: N 59°50' E 010°17'.
View on Google Maps.

See reports from other nearby stations

  
Tides and Currents Weather Stations Pressure Air Temp Water Temp Dewpoint Dewpoint Depression Visibility Wind Speed Wind Dir Waves Ship Positions
date/time (UTC)wind fromknots sea level pressurealtimeterstation pressurevisibilityair tempwater tempwave heightnotes
2015-Mar-02 02:43 126 2 0.6
2015-Mar-02 02:28 147 2 1.1
2015-Mar-02 02:11 089 2 1.1
2015-Mar-02 01:56 114 2 1.1
2015-Mar-02 01:41 170 2 1.1
2015-Mar-02 01:26 120 2 1.1
2015-Mar-02 01:10 183 1 1.1
2015-Mar-02 00:55 161 1 1.1
2015-Mar-02 00:40 134 2 1.1
2015-Mar-02 00:25 165 2 1.1
2015-Mar-02 00:09 161 3 1.1
2015-Mar-01 23:54 112 3 1.1
2015-Mar-01 23:39 118 3 1.1
2015-Mar-01 23:24 203 3 1.1
2015-Mar-01 23:09 190 4 1.1
2015-Mar-01 22:53 177 4 1.1
2015-Mar-01 22:38 142 3 1.1
2015-Mar-01 22:23 143 3 1.1
2015-Mar-01 22:08 148 4 1.1
2015-Mar-01 21:53 169 5 1.1
2015-Mar-01 21:38 167 4 1.1
2015-Mar-01 21:23 123 4 1.7
2015-Mar-01 21:08 185 4 1.7
2015-Mar-01 20:53 201 4 1.7
2015-Mar-01 20:36 198 4 1.7
2015-Mar-01 20:21 185 4 1.7
2015-Mar-01 20:06 158 3 1.7
2015-Mar-01 19:51 133 4 1.7
2015-Mar-01 19:36 108 4 1.7
2015-Mar-01 19:21 183 4 1.7
2015-Mar-01 19:06 146 5 1.7
2015-Mar-01 18:51 188 6 1.7
2015-Mar-01 18:36 171 6 1.7
2015-Mar-01 18:21 130 5 1.7
2015-Mar-01 18:06 155 6 1.7
2015-Mar-01 17:51 190 8 1.7
2015-Mar-01 17:36 130 9 1.7
2015-Mar-01 17:21 113 8 1.7
2015-Mar-01 17:06 156 6 1.7
2015-Mar-01 16:51 154 6 1.7
2015-Mar-01 16:36 102 7 1.7
2015-Mar-01 16:21 117 7 1.7
2015-Mar-01 16:05 171 6 1.1
2015-Mar-01 15:50 079 7 1.1
2015-Mar-01 15:35 085 6 1.1
2015-Mar-01 15:20 143 6 0.6
2015-Mar-01 15:04 124 6 0.6
2015-Mar-01 14:49 109 6 0.6
2015-Mar-01 14:34 102 7 0.6
2015-Mar-01 14:19 103 7 0.6
2015-Mar-01 14:04 104 6 -0.0
2015-Mar-01 13:48 090 7 -0.0
2015-Mar-01 13:33 096 8 -0.0
2015-Mar-01 13:18 071 8 -0.0
2015-Mar-01 13:03 069 8 -0.0
2015-Mar-01 12:48 107 8 -0.0
2015-Mar-01 12:33 085 8 -0.0
2015-Mar-01 12:18 154 9 -0.0
2015-Mar-01 12:03 094 9 -0.0
2015-Mar-01 11:48 104 9 -0.6
2015-Mar-01 11:31 077 8 -0.6
2015-Mar-01 11:17 085 9 -0.6
2015-Mar-01 11:02 102 9 -0.6
2015-Mar-01 10:47 142 10 -0.6
2015-Mar-01 10:32 163 11 -0.6
2015-Mar-01 10:21 130 10 -0.6
2015-Mar-01 10:01 094 9 -0.6
2015-Mar-01 09:46 121 11 -0.6
2015-Mar-01 09:31 119 8 -0.6
2015-Mar-01 09:16 097 8 -0.6
2015-Mar-01 09:01 116 9 -0.6
2015-Mar-01 08:46 089 10 -0.6
2015-Mar-01 08:31 138 8 -0.6
2015-Mar-01 08:16 106 10 -0.6
2015-Mar-01 08:01 112 7 -0.6
2015-Mar-01 07:46 116 9 -0.6
2015-Mar-01 07:31 131 8 -0.6
2015-Mar-01 07:16 121 10 -0.6
2015-Mar-01 07:01 098 9 -0.6
2015-Mar-01 06:46 081 10 -0.6
2015-Mar-01 06:31 122 8 -0.0
2015-Mar-01 06:14 144 7 -0.0
2015-Mar-01 06:01 097 9 -0.0
2015-Mar-01 05:44 105 9 -0.0
2015-Mar-01 05:29 104 9 -0.0
2015-Mar-01 05:14 082 8 -0.0
2015-Mar-01 04:59 113 8 -0.0
2015-Mar-01 04:44 121 8 -0.0
2015-Mar-01 04:29 084 9 -0.0
2015-Mar-01 04:14 114 9 -0.0
2015-Mar-01 03:59 112 8 -0.0
2015-Mar-01 03:44 032 9 0.6
2015-Mar-01 03:28 082 8 -0.0
2015-Mar-01 03:14 121 8 -0.0
2015-Mar-01 02:58 132 8 -0.0
2015-Mar-01 02:43 110 8 -0.0
2015-Mar-01 02:28 148 7 -0.0
2015-Mar-01 02:14 096 6 -0.0
2015-Mar-01 01:57 098 6 -0.0
2015-Mar-01 01:42 070 7 -0.0
2015-Mar-01 01:27 073 7 -0.0
2015-Mar-01 01:12 111 7 -0.0
2015-Mar-01 00:57 091 7 -0.0
2015-Mar-01 00:42 092 6 -0.0
2015-Mar-01 00:27 117 7 0.6
2015-Mar-01 00:12 127 6 0.6
2015-Feb-28 23:57 131 6 0.6
2015-Feb-28 23:42 167 6 0.6
2015-Feb-28 23:26 117 6 0.6
2015-Feb-28 23:11 138 6 0.6
2015-Feb-28 22:56 133 8 0.6
2015-Feb-28 22:41 144 7 0.6
2015-Feb-28 22:26 109 7 1.1
2015-Feb-28 22:11 124 7 1.1
2015-Feb-28 21:56 171 6 1.1
2015-Feb-28 21:41 112 6 1.1
2015-Feb-28 21:26 134 8 1.1
2015-Feb-28 21:11 154 8 1.1
2015-Feb-28 20:56 148 8 1.1
2015-Feb-28 20:41 179 8 1.1
2015-Feb-28 20:24 203 9 1.1
2015-Feb-28 20:11 144 9 1.1
2015-Feb-28 19:54 127 10 1.1
2015-Feb-28 19:41 133 10 1.1
2015-Feb-28 19:24 136 8 1.1
2015-Feb-28 19:09 147 7 1.1
2015-Feb-28 18:54 144 9 1.1
2015-Feb-28 18:39 151 8 1.1
2015-Feb-28 18:24 121 6 1.1
2015-Feb-28 18:09 171 6 0.6
2015-Feb-28 17:54 166 8 0.6
2015-Feb-28 17:39 170 12 0.6
2015-Feb-28 17:24 193 9 0.6
2015-Feb-28 17:08 112 10 0.6
2015-Feb-28 16:54 124 9 0.6
2015-Feb-28 16:38 175 9 0.6
2015-Feb-28 16:23 145 10 0.6
2015-Feb-28 16:08 148 9 0.6
2015-Feb-28 15:54 162 8 0.6
2015-Feb-28 15:38 139 7 0.6
2015-Feb-28 15:22 180 8 0.6
2015-Feb-28 15:07 124 8 0.6
2015-Feb-28 14:52 135 8 0.6
2015-Feb-28 14:37 212 7 0.6
2015-Feb-28 14:22 200 8 0.6
2015-Feb-28 14:07 149 5 0.6
2015-Feb-28 13:52 096 7 0.6
2015-Feb-28 13:37 148 7 0.6
2015-Feb-28 13:22 133 6 0.6
2015-Feb-28 13:06 155 6 0.6
2015-Feb-28 12:52 183 6 0.6
2015-Feb-28 12:36 131 6 0.6
2015-Feb-28 12:21 217 6 0.6
2015-Feb-28 12:06 132 6 1.1
2015-Feb-28 11:51 125 6 1.1
2015-Feb-28 11:36 127 6 0.6
2015-Feb-28 11:21 137 6 0.6
2015-Feb-28 11:06 123 6 0.6
2015-Feb-28 10:50 155 7 0.6
2015-Feb-28 10:36 150 6 0.6
2015-Feb-28 10:21 169 6 0.6
2015-Feb-28 10:04 207 6 -0.0
2015-Feb-28 09:51 229 6 -0.0
2015-Feb-28 09:34 151 6 -0.0
2015-Feb-28 09:21 136 6 -0.0
2015-Feb-28 09:04 194 5 -0.0
2015-Feb-28 08:49 109 4 -0.6
2015-Feb-28 08:34 115 4 -0.6
2015-Feb-28 08:19 144 4 -0.6
2015-Feb-28 08:04 132 4 -0.6
2015-Feb-28 07:49 143 5 -0.6
2015-Feb-28 07:34 185 4 -1.1
2015-Feb-28 07:18 158 4 -1.1
2015-Feb-28 07:04 117 5 -1.7
2015-Feb-28 06:48 150 3 -1.7
2015-Feb-28 05:48 090 4 -2.2
2015-Feb-28 05:34 152 4 -2.2
2015-Feb-28 05:18 133 2 -2.2
2015-Feb-28 05:02 105 2 -2.2
2015-Feb-28 04:47 116 1 -2.2
2015-Feb-28 04:32 100 2 -2.2
2015-Feb-28 04:17 128 1 -2.2
2015-Feb-28 04:02 104 1 -2.2
2015-Feb-28 03:47 088 2 -2.2
2015-Feb-28 03:32 098 2 -2.2
2015-Feb-28 03:16 203 -2.2
2015-Feb-28 03:01 223 2 -2.2